Regional Weather Roundup
Issued by NWS Portland, ME

Current Version | Previous Version | Text Only | Print | Product List | Glossary Off
Versions: 1 2 3 4 5 6 7 8 9 10 11 12 13 14 15 16 17 18 19 20 21 22 23 24 25 26 27 28 29 30 31 32 33 34 35 36 37 38 39 40 41 42 43 44 45 46 47 48 49 50
000 ASUS41 KGYX 181310 RWRGYX WEATHER ROUNDUP FOR MAINE AND NEW HAMPSHIRE NATIONAL WEATHER SERVICE GRAY ME 800 AM EST FRI JAN 18 2019 MEZ002-005-006-010-012-015-018-020-021-024-026-027-029-181400- MAINE CITY SKY/WX TMP DP RH WIND PRES REMARKS PORTLAND CLOUDY 17 8 67 VRB5 30.18F SANFORD FLURRIES 16 10 77 CALM 30.16F BAR HARBOR FLURRIES 25 20 81 SE3 30.22F WISCASSET CLOUDY 18 13 80 CALM 30.20S ROCKLAND LGT SNOW 28 27 93 S8 30.19S FOG FRYEBURG CLOUDY 10 2 69 CALM 30.16S LEWISTONAUBURN CLOUDY 11 3 70 NW3 30.18S AUGUSTA CLOUDY 10 5 80 N3 30.18S WATERVILLE CLOUDY 9 1 72 MISG 30.15F BANGOR MOCLDY 15 9 76 CALM 30.19F GREENVILLE N/A 6 -2 69 SE10 30.03F WCI -9 MILLINOCKET CLOUDY 4 -2 76 CALM 30.19F HOULTON CLOUDY -5 -10 79 CALM 30.18S HAZE PRESQUE ISLE CLOUDY 0 -9 65 SE10 30.16F WCI -16 FRENCHVILLE CLOUDY 0 -10 63 SE8 30.08F CARIBOU CLOUDY 1 -8 66 CALM 30.14F $$ NHZ002-005-008-009-011-012-014-181400- NEW HAMPSHIRE CITY SKY/WX TMP DP RH WIND PRES REMARKS PORTSMOUTH CLOUDY 19 9 64 CALM 30.15F ROCHESTER CLOUDY 18 10 71 NW5 30.15S NASHUA CLOUDY 19 13 77 CALM 30.16F MANCHESTER CLOUDY 22 11 62 CALM 30.14F CONCORD CLOUDY 18 10 71 CALM 30.15F LACONIA CLOUDY 16 8 71 CALM 30.15 PLYMOUTH CLOUDY 14 6 73 CALM 30.15F BERLIN CLOUDY 8 0 69 CALM 30.05F WHITEFIELD LGT SNOW 10 4 76 CALM 30.06F JAFFREY CLOUDY 21 15 78 CALM 30.08F KEENE CLOUDY 22 15 75 CALM 30.12F LEBANON CLOUDY 18 9 68 CALM 30.10F MT WASHINGTON SNOWSHWR 3 3 100 SW38 N/A VSB 1/16WCI -24 $$ VTZ005-007-008-181400- VERMONT CITY SKY/WX TMP DP RH WIND PRES REMARKS ST JOHNSBURY N/A 10 5 80 MISG 30.07F MONTPELIER LGT SNOW 17 13 84 S6 30.06F FOG BURLINGTON MOCLDY 23 15 71 S12G20 30.04F WCI 12 $$ MAZ007-012-024-CTZ003-RIZ002-NYZ038-NYZ072-181400- SOUTHERN NEW ENGLAND AND NY CITY SKY/WX TMP DP RH WIND PRES REMARKS BOSTON MOCLDY 30 23 75 S5 30.16F WORCESTER CLOUDY 22 18 85 SE6 30.09F NANTUCKET LGT SNOW 33 32 96 E9 30.13F FOG PROVIDENCE MOCLDY 27 20 75 N7 30.15S HARTFORD CLOUDY 24 11 57 N5 30.14F ALBANY CLOUDY 26 19 74 S9 30.08F NEW YORK CITY LGT SNOW 32 30 92 NE7 30.11F FOG $$ ANZ081-ANZ082-ANZ150-NHZ014-MEZ023>029-181400- COASTAL MARINE OBSERVATIONS STATION/POSITION TIME TEMP WIND PRES WAVE AIR SEA DIR/SP/G HT/PER (UTC) (F) (DEG/KT/KT) (MB) (FT/S) MOUNT DESERT ROC 1200 28 140/ 17/ 19 1023.7F MATINICUS ROCK 1200 30 160/ 22/ 24 1022.0F ISLE OF SHOALS 1200 31 200/ 9/ 10 1021.6R JEFFREYS LEDGE 1238 43 N/A 2/ 3 CASHES LEDGE BUO 1150 32 40 1022.2 3/ 4 $$ .............KEY.............. WCI - WIND CHILL TC - TEMPERATURE IN CELSIUS VSB - VISIBILITY IN MILES HX - HEAT INDEX FAIR- INDICATES FEW OR NO CLOUDS BELOW 12,000 FT, WITH NO SIGNIFICANT WEATHER AND/OR OBSTRUCTIONS TO VISIBILITY.

USA.gov is the U.S. government's official web portal to all federal, state and local government web resources and services.